owner,sensor,date,latitude,longitude,vertical_datum,wind_speed,wind_to_direction,wind_speed_of_gust,qcFlag 
NDBC,ioos:station:wmo:42039:1,2014-08-01T00:50:00Z,28.7390,-86.0060,0.0,2.0,330.0,4.0,'1111122,1111122,1111122' 
NDBC,ioos:station:wmo:42039:1,2014-08-01T01:50:00Z,28.7390,-86.0060,0.0,0.0,-9999.0,1.0,'1114422,1111122,1111122' 
NDBC,ioos:station:wmo:42039:1,2014-08-01T02:50:00Z,28.7390,-86.0060,0.0,2.0,20.0,3.0,'1111122,1111122,1111122' 
NDBC,ioos:station:wmo:42039:1,2014-08-01T03:50:00Z,28.7390,-86.0060,0.0,1.0,80.0,2.0,'1111122,1111122,1111122' 
NDBC,ioos:station:wmo:42039:1,2014-08-01T04:50:00Z,28.7390,-86.0060,0.0,1.0,100.0,2.0,'1111122,1111122,1111122' 
NDBC,ioos:station:wmo:42039:1,2014-08-01T06:50:00Z,28.7390,-86.0060,0.0,1.0,300.0,1.0,'1111122,1111122,1111122' 
NDBC,ioos:station:wmo:42039:1,2014-08-01T07:50:00Z,28.7390,-86.0060,0.0,0.0,-9999.0,1.0,'1114422,1111122,1111122' 
NDBC,ioos:station:wmo:42039:1,2014-08-01T08:50:00Z,28.7390,-86.0060,0.0,1.0,230.0,1.0,'1111122,1111122,1111122' 
NDBC,ioos:station:wmo:42039:1,2014-08-01T09:50:00Z,28.7390,-86.0060,0.0,1.0,220.0,2.0,'1111122,1111122,1111122' 
NDBC,ioos:station:wmo:42039:1,2014-08-01T10:50:00Z,28.7390,-86.0060,0.0,2.0,270.0,2.0,'1111122,1111122,1111122' 
NDBC,ioos:station:wmo:42039:1,2014-08-01T11:50:00Z,28.7390,-86.0060,0.0,2.0,240.0,2.0,'1111122,1111122,1111122' 
NDBC,ioos:station:wmo:42039:1,2014-08-01T12:50:00Z,28.7390,-86.0060,0.0,2.0,330.0,3.0,'1111122,1111122,1111122' 
NDBC,ioos:station:wmo:42039:1,2014-08-01T13:50:00Z,28.7390,-86.0060,0.0,1.0,330.0,2.0,'1111122,1111122,1111122' 
NDBC,ioos:station:wmo:42039:1,2014-08-01T14:50:00Z,28.7390,-86.0060,0.0,2.0,310.0,3.0,'1111122,1111122,1111122' 
NDBC,ioos:station:wmo:42039:1,2014-08-01T15:50:00Z,28.7390,-86.0060,0.0,3.0,320.0,4.0,'1111122,1111122,1111122' 
NDBC,ioos:station:wmo:42039:1,2014-08-01T16:50:00Z,28.7390,-86.0060,0.0,1.0,320.0,2.0,'1111122,1111122,1111122' 
NDBC,ioos:station:wmo:42039:1,2014-08-01T17:50:00Z,28.7390,-86.0060,0.0,2.0,320.0,3.0,'1111122,1111122,1111122' 
NDBC,ioos:station:wmo:42039:1,2014-08-01T18:50:00Z,28.7390,-86.0060,0.0,2.0,300.0,3.0,'1111122,1111122,1111122' 
NDBC,ioos:station:wmo:42039:1,2014-08-01T19:50:00Z,28.7390,-86.0060,0.0,1.0,340.0,2.0,'1111122,1111122,1111122' 
NDBC,ioos:station:wmo:42039:1,2014-08-01T20:50:00Z,28.7390,-86.0060,0.0,2.0,300.0,3.0,'1111122,1111122,1111122' 
NDBC,ioos:station:wmo:42039:1,2014-08-01T21:50:00Z,28.7390,-86.0060,0.0,1.0,20.0,2.0,'1111122,1111122,1111122' 
NDBC,ioos:station:wmo:42039:1,2014-08-01T22:50:00Z,28.7390,-86.0060,0.0,2.0,320.0,3.0,'1111122,1111122,1111122' 
NDBC,ioos:station:wmo:42039:1,2014-08-01T23:50:00Z,28.7390,-86.0060,0.0,1.0,330.0,2.0,'1111122,1111122,1111122' 
NDBC,ioos:station:wmo:42039:1,2014-08-02T00:50:00Z,28.7390,-86.0060,0.0,1.0,320.0,1.0,'1111122,1111122,1111122' 
NDBC,ioos:station:wmo:42039:1,2014-08-02T01:50:00Z,28.7390,-86.0060,0.0,1.0,350.0,2.0,'1111122,1111122,1111122' 
NDBC,ioos:station:wmo:42039:1,2014-08-02T02:50:00Z,28.7390,-86.0060,0.0,2.0,40.0,3.0,'1111122,1111122,1111122' 
NDBC,ioos:station:wmo:42039:1,2014-08-02T03:50:00Z,28.7390,-86.0060,0.0,1.0,20.0,2.0,'1111122,1111122,1111122' 
NDBC,ioos:station:wmo:42039:1,2014-08-02T04:50:00Z,28.7390,-86.0060,0.0,1.0,10.0,1.0,'1111122,1111122,1111122' 
NDBC,ioos:station:wmo:42039:1,2014-08-02T07:50:00Z,28.7390,-86.0060,0.0,1.0,280.0,1.0,'1111122,1111122,1111122' 
NDBC,ioos:station:wmo:42039:1,2014-08-02T08:50:00Z,28.7390,-86.0060,0.0,2.0,300.0,3.0,'1111122,1111122,1111122' 
NDBC,ioos:station:wmo:42039:1,2014-08-02T09:50:00Z,28.7390,-86.0060,0.0,1.0,270.0,2.0,'1111122,1111122,1111122' 
NDBC,ioos:station:wmo:42039:1,2014-08-02T11:50:00Z,28.7390,-86.0060,0.0,0.0,-9999.0,1.0,'1114422,1111122,1111122' 
NDBC,ioos:station:wmo:42039:1,2014-08-02T12:50:00Z,28.7390,-86.0060,0.0,0.0,-9999.0,1.0,'1114422,1111122,1111122' 
NDBC,ioos:station:wmo:42039:1,2014-08-02T14:50:00Z,28.7390,-86.0060,0.0,1.0,10.0,1.0,'1111122,1111122,1111122' 
NDBC,ioos:station:wmo:42039:1,2014-08-02T15:50:00Z,28.7390,-86.0060,0.0,0.0,-9999.0,1.0,'1114422,1111122,1111122' 
NDBC,ioos:station:wmo:42039:1,2014-08-02T16:50:00Z,28.7390,-86.0060,0.0,1.0,310.0,2.0,'1111122,1111122,1111122' 
NDBC,ioos:station:wmo:42039:1,2014-08-02T17:50:00Z,28.7390,-86.0060,0.0,1.0,300.0,2.0,'1111122,1111122,1111122' 
NDBC,ioos:station:wmo:42039:1,2014-08-02T18:50:00Z,28.7390,-86.0060,0.0,1.0,290.0,2.0,'1111122,1111122,1111122' 
NDBC,ioos:station:wmo:42039:1,2014-08-02T19:50:00Z,28.7390,-86.0060,0.0,2.0,330.0,3.0,'1111122,1111122,1111122' 
NDBC,ioos:station:wmo:42039:1,2014-08-02T20:50:00Z,28.7390,-86.0060,0.0,2.0,330.0,3.0,'1111122,1111122,1111122' 
NDBC,ioos:station:wmo:42039:1,2014-08-02T21:50:00Z,28.7390,-86.0060,0.0,3.0,320.0,4.0,'1111122,1111122,1111122' 
NDBC,ioos:station:wmo:42039:1,2014-08-02T22:50:00Z,28.7390,-86.0060,0.0,2.0,320.0,4.0,'1111122,1111122,1111122' 
NDBC,ioos:station:wmo:42039:1,2014-08-02T23:50:00Z,28.7390,-86.0060,0.0,3.0,320.0,4.0,'1111122,1111122,1111122' 
NDBC,ioos:station:wmo:42039:1,2014-08-03T00:50:00Z,28.7390,-86.0060,0.0,2.0,330.0,3.0,'1111122,1111122,1111122' 
NDBC,ioos:station:wmo:42039:1,2014-08-03T01:50:00Z,28.7390,-86.0060,0.0,2.0,360.0,3.0,'1111122,1111122,1111122' 
NDBC,ioos:station:wmo:42039:1,2014-08-03T02:50:00Z,28.7390,-86.0060,0.0,3.0,350.0,3.0,'1111122,1111122,1111122' 
NDBC,ioos:station:wmo:42039:1,2014-08-03T03:50:00Z,28.7390,-86.0060,0.0,3.0,10.0,3.0,'1111122,1111122,1111122' 
NDBC,ioos:station:wmo:42039:1,2014-08-03T04:50:00Z,28.7390,-86.0060,0.0,5.0,360.0,5.0,'1111122,1111122,1111122' 
NDBC,ioos:station:wmo:42039:1,2014-08-03T06:50:00Z,28.7390,-86.0060,0.0,4.0,360.0,5.0,'1111122,1111122,1111122' 
NDBC,ioos:station:wmo:42039:1,2014-08-03T07:50:00Z,28.7390,-86.0060,0.0,4.0,350.0,4.0,'1111122,1111122,1111122' 
NDBC,ioos:station:wmo:42039:1,2014-08-03T08:50:00Z,28.7390,-86.0060,0.0,3.0,340.0,4.0,'1111122,1111122,1111122' 
NDBC,ioos:station:wmo:42039:1,2014-08-03T09:50:00Z,28.7390,-86.0060,0.0,2.0,350.0,3.0,'1111122,1111122,1111122' 
NDBC,ioos:station:wmo:42039:1,2014-08-03T10:50:00Z,28.7390,-86.0060,0.0,1.0,30.0,2.0,'1111122,1111122,1111122' 
NDBC,ioos:station:wmo:42039:1,2014-08-03T11:50:00Z,28.7390,-86.0060,0.0,3.0,60.0,3.0,'1111122,1111122,1111122' 
NDBC,ioos:station:wmo:42039:1,2014-08-03T12:50:00Z,28.7390,-86.0060,0.0,3.0,60.0,4.0,'1111122,1111122,1111122' 
NDBC,ioos:station:wmo:42039:1,2014-08-03T14:50:00Z,28.7390,-86.0060,0.0,2.0,100.0,3.0,'1111122,1111122,1111122' 
NDBC,ioos:station:wmo:42039:1,2014-08-03T15:50:00Z,28.7390,-86.0060,0.0,2.0,130.0,2.0,'1111122,1111122,1111122' 
NDBC,ioos:station:wmo:42039:1,2014-08-03T16:50:00Z,28.7390,-86.0060,0.0,1.0,360.0,2.0,'1111122,1111122,1111122' 
NDBC,ioos:station:wmo:42039:1,2014-08-03T17:50:00Z,28.7390,-86.0060,0.0,3.0,40.0,4.0,'1111122,1111122,1111122' 
NDBC,ioos:station:wmo:42039:1,2014-08-03T18:50:00Z,28.7390,-86.0060,0.0,3.0,30.0,4.0,'1111122,1111122,1111122' 
NDBC,ioos:station:wmo:42039:1,2014-08-03T19:50:00Z,28.7390,-86.0060,0.0,2.0,40.0,3.0,'1111122,1111122,1111122' 
NDBC,ioos:station:wmo:42039:1,2014-08-03T20:50:00Z,28.7390,-86.0060,0.0,3.0,50.0,3.0,'1111122,1111122,1111122' 
NDBC,ioos:station:wmo:42039:1,2014-08-03T22:50:00Z,28.7390,-86.0060,0.0,5.0,30.0,6.0,'1111122,1111122,1111122' 
NDBC,ioos:station:wmo:42039:1,2014-08-03T23:50:00Z,28.7390,-86.0060,0.0,9.0,40.0,12.0,'1111122,1111122,1111122' 
NDBC,ioos:station:wmo:42039:1,2014-08-04T01:50:00Z,28.7390,-86.0060,0.0,4.0,50.0,4.0,'1111122,1111122,1111122' 
NDBC,ioos:station:wmo:42039:1,2014-08-04T02:50:00Z,28.7390,-86.0060,0.0,3.0,50.0,4.0,'1111122,1111122,1111122' 
NDBC,ioos:station:wmo:42039:1,2014-08-04T03:50:00Z,28.7390,-86.0060,0.0,6.0,30.0,7.0,'1111122,1111122,1111122' 
NDBC,ioos:station:wmo:42039:1,2014-08-04T04:50:00Z,28.7390,-86.0060,0.0,6.0,60.0,6.0,'1111122,1111122,1111122' 
NDBC,ioos:station:wmo:42039:1,2014-08-04T06:50:00Z,28.7390,-86.0060,0.0,5.0,60.0,6.0,'1111122,1111122,1111122' 
NDBC,ioos:station:wmo:42039:1,2014-08-04T07:50:00Z,28.7390,-86.0060,0.0,5.0,60.0,6.0,'1111122,1111122,1111122' 
NDBC,ioos:station:wmo:42039:1,2014-08-04T08:50:00Z,28.7390,-86.0060,0.0,4.0,60.0,5.0,'1111122,1111122,1111122' 
NDBC,ioos:station:wmo:42039:1,2014-08-04T09:50:00Z,28.7390,-86.0060,0.0,3.0,50.0,4.0,'1111122,1111122,1111122' 
NDBC,ioos:station:wmo:42039:1,2014-08-04T10:50:00Z,28.7390,-86.0060,0.0,2.0,50.0,3.0,'1111122,1111122,1111122' 
NDBC,ioos:station:wmo:42039:1,2014-08-04T11:50:00Z,28.7390,-86.0060,0.0,3.0,10.0,3.0,'1111122,1111122,1111122' 
NDBC,ioos:station:wmo:42039:1,2014-08-04T12:50:00Z,28.7390,-86.0060,0.0,2.0,20.0,3.0,'1111122,1111122,1111122' 
NDBC,ioos:station:wmo:42039:1,2014-08-04T14:50:00Z,28.7390,-86.0060,0.0,4.0,50.0,5.0,'1111122,1111122,1111122' 
NDBC,ioos:station:wmo:42039:1,2014-08-04T15:50:00Z,28.7390,-86.0060,0.0,3.0,50.0,4.0,'1111122,1111122,1111122' 
NDBC,ioos:station:wmo:42039:1,2014-08-04T16:50:00Z,28.7390,-86.0060,0.0,3.0,40.0,5.0,'1111122,1111122,1111122' 
NDBC,ioos:station:wmo:42039:1,2014-08-04T17:50:00Z,28.7390,-86.0060,0.0,5.0,40.0,5.0,'1111122,1111122,1111122' 
NDBC,ioos:station:wmo:42039:1,2014-08-04T18:50:00Z,28.7390,-86.0060,0.0,3.0,80.0,4.0,'1111122,1111122,1111122' 
NDBC,ioos:station:wmo:42039:1,2014-08-04T19:50:00Z,28.7390,-86.0060,0.0,3.0,70.0,3.0,'1111122,1111122,1111122' 
NDBC,ioos:station:wmo:42039:1,2014-08-04T20:50:00Z,28.7390,-86.0060,0.0,3.0,40.0,4.0,'1111122,1111122,1111122' 
NDBC,ioos:station:wmo:42039:1,2014-08-04T21:50:00Z,28.7390,-86.0060,0.0,1.0,20.0,2.0,'1111122,1111122,1111122' 
NDBC,ioos:station:wmo:42039:1,2014-08-04T22:50:00Z,28.7390,-86.0060,0.0,1.0,90.0,2.0,'1111122,1111122,1111122' 
NDBC,ioos:station:wmo:42039:1,2014-08-04T23:50:00Z,28.7390,-86.0060,0.0,2.0,110.0,3.0,'1111122,1111122,1111122' 
NDBC,ioos:station:wmo:42039:1,2014-08-05T00:50:00Z,28.7390,-86.0060,0.0,1.0,130.0,1.0,'1111122,1111122,1111122' 
NDBC,ioos:station:wmo:42039:1,2014-08-05T01:50:00Z,28.7390,-86.0060,0.0,2.0,40.0,3.0,'1111122,1111122,1111122' 
NDBC,ioos:station:wmo:42039:1,2014-08-05T02:50:00Z,28.7390,-86.0060,0.0,7.0,10.0,8.0,'1111122,1111122,1111122' 
NDBC,ioos:station:wmo:42039:1,2014-08-05T03:50:00Z,28.7390,-86.0060,0.0,3.0,290.0,4.0,'1111122,1111122,1111122' 
NDBC,ioos:station:wmo:42039:1,2014-08-05T06:50:00Z,28.7390,-86.0060,0.0,2.0,70.0,3.0,'1111122,1111122,1111122' 
NDBC,ioos:station:wmo:42039:1,2014-08-05T07:50:00Z,28.7390,-86.0060,0.0,1.0,100.0,1.0,'1111122,1111122,1111122' 
NDBC,ioos:station:wmo:42039:1,2014-08-05T08:50:00Z,28.7390,-86.0060,0.0,1.0,210.0,2.0,'1111122,1111122,1111122' 
NDBC,ioos:station:wmo:42039:1,2014-08-05T09:50:00Z,28.7390,-86.0060,0.0,3.0,310.0,4.0,'1111122,1111122,1111122' 
NDBC,ioos:station:wmo:42039:1,2014-08-05T10:50:00Z,28.7390,-86.0060,0.0,2.0,310.0,3.0,'1111122,1111122,1111122' 
NDBC,ioos:station:wmo:42039:1,2014-08-05T12:50:00Z,28.7390,-86.0060,0.0,1.0,340.0,2.0,'1111122,1111122,1111122' 
NDBC,ioos:station:wmo:42039:1,2014-08-05T13:50:00Z,28.7390,-86.0060,0.0,3.0,340.0,4.0,'1111122,1111122,1111122' 
NDBC,ioos:station:wmo:42039:1,2014-08-05T14:50:00Z,28.7390,-86.0060,0.0,3.0,340.0,5.0,'1111122,1111122,1111122' 
NDBC,ioos:station:wmo:42039:1,2014-08-05T15:50:00Z,28.7390,-86.0060,0.0,3.0,70.0,4.0,'1111122,1111122,1111122' 
NDBC,ioos:station:wmo:42039:1,2014-08-05T16:50:00Z,28.7390,-86.0060,0.0,3.0,60.0,4.0,'1111122,1111122,1111122' 
NDBC,ioos:station:wmo:42039:1,2014-08-05T17:50:00Z,28.7390,-86.0060,0.0,2.0,80.0,3.0,'1111122,1111122,1111122' 
NDBC,ioos:station:wmo:42039:1,2014-08-05T18:50:00Z,28.7390,-86.0060,0.0,2.0,80.0,3.0,'1111122,1111122,1111122' 
NDBC,ioos:station:wmo:42039:1,2014-08-05T19:50:00Z,28.7390,-86.0060,0.0,3.0,80.0,4.0,'1111122,1111122,1111122' 
NDBC,ioos:station:wmo:42039:1,2014-08-05T21:50:00Z,28.7390,-86.0060,0.0,2.0,140.0,3.0,'1111122,1111122,1111122' 
NDBC,ioos:station:wmo:42039:1,2014-08-05T22:50:00Z,28.7390,-86.0060,0.0,2.0,190.0,3.0,'1111122,1111122,1111122' 
NDBC,ioos:station:wmo:42039:1,2014-08-05T23:50:00Z,28.7390,-86.0060,0.0,1.0,170.0,2.0,'1111122,1111122,1111122' 
NDBC,ioos:station:wmo:42039:1,2014-08-06T00:50:00Z,28.7390,-86.0060,0.0,1.0,170.0,2.0,'1111122,1111122,1111122' 
NDBC,ioos:station:wmo:42039:1,2014-08-06T01:50:00Z,28.7390,-86.0060,0.0,2.0,180.0,3.0,'1111122,1111122,1111122' 
NDBC,ioos:station:wmo:42039:1,2014-08-06T03:50:00Z,28.7390,-86.0060,0.0,2.0,230.0,2.0,'1111122,1111122,1111122' 
NDBC,ioos:station:wmo:42039:1,2014-08-06T04:50:00Z,28.7390,-86.0060,0.0,3.0,230.0,4.0,'1111122,1111122,1111122' 
NDBC,ioos:station:wmo:42039:1,2014-08-06T06:50:00Z,28.7390,-86.0060,0.0,3.0,280.0,3.0,'1111122,1111122,1111122' 
NDBC,ioos:station:wmo:42039:1,2014-08-06T07:50:00Z,28.7390,-86.0060,0.0,3.0,280.0,4.0,'1111122,1111122,1111122' 
NDBC,ioos:station:wmo:42039:1,2014-08-06T08:50:00Z,28.7390,-86.0060,0.0,3.0,280.0,3.0,'1111122,1111122,1111122' 
NDBC,ioos:station:wmo:42039:1,2014-08-06T09:50:00Z,28.7390,-86.0060,0.0,2.0,280.0,3.0,'1111122,1111122,1111122' 
NDBC,ioos:station:wmo:42039:1,2014-08-06T10:50:00Z,28.7390,-86.0060,0.0,2.0,290.0,3.0,'1111122,1111122,1111122' 
NDBC,ioos:station:wmo:42039:1,2014-08-06T11:50:00Z,28.7390,-86.0060,0.0,3.0,300.0,3.0,'1111122,1111122,1111122' 
NDBC,ioos:station:wmo:42039:1,2014-08-06T12:50:00Z,28.7390,-86.0060,0.0,3.0,310.0,3.0,'1111122,1111122,1111122' 
NDBC,ioos:station:wmo:42039:1,2014-08-06T14:50:00Z,28.7390,-86.0060,0.0,3.0,330.0,3.0,'1111122,1111122,1111122' 
NDBC,ioos:station:wmo:42039:1,2014-08-06T15:50:00Z,28.7390,-86.0060,0.0,1.0,360.0,2.0,'1111122,1111122,1111122' 
NDBC,ioos:station:wmo:42039:1,2014-08-06T16:50:00Z,28.7390,-86.0060,0.0,1.0,330.0,2.0,'1111122,1111122,1111122' 
NDBC,ioos:station:wmo:42039:1,2014-08-06T17:50:00Z,28.7390,-86.0060,0.0,1.0,310.0,2.0,'1111122,1111122,1111122' 
NDBC,ioos:station:wmo:42039:1,2014-08-06T18:50:00Z,28.7390,-86.0060,0.0,1.0,40.0,1.0,'1111122,1111122,1111122' 
NDBC,ioos:station:wmo:42039:1,2014-08-06T19:50:00Z,28.7390,-86.0060,0.0,1.0,320.0,2.0,'1111122,1111122,1111122' 
NDBC,ioos:station:wmo:42039:1,2014-08-06T20:50:00Z,28.7390,-86.0060,0.0,1.0,280.0,2.0,'1111122,1111122,1111122' 
NDBC,ioos:station:wmo:42039:1,2014-08-06T21:50:00Z,28.7390,-86.0060,0.0,1.0,250.0,2.0,'1111122,1111122,1111122' 
NDBC,ioos:station:wmo:42039:1,2014-08-06T22:50:00Z,28.7390,-86.0060,0.0,2.0,260.0,3.0,'1111122,1111122,1111122' 
NDBC,ioos:station:wmo:42039:1,2014-08-06T23:50:00Z,28.7390,-86.0060,0.0,2.0,240.0,3.0,'1111122,1111122,1111122' 
NDBC,ioos:station:wmo:42039:1,2014-08-07T00:50:00Z,28.7390,-86.0060,0.0,3.0,270.0,3.0,'1111122,1111122,1111122' 
NDBC,ioos:station:wmo:42039:1,2014-08-07T01:50:00Z,28.7390,-86.0060,0.0,2.0,220.0,3.0,'1111122,1111122,1111122' 
NDBC,ioos:station:wmo:42039:1,2014-08-07T02:50:00Z,28.7390,-86.0060,0.0,1.0,210.0,3.0,'1111122,1111122,1111122' 
NDBC,ioos:station:wmo:42039:1,2014-08-07T04:50:00Z,28.7390,-86.0060,0.0,2.0,260.0,3.0,'1111122,1111122,1111122' 
NDBC,ioos:station:wmo:42039:1,2014-08-07T06:50:00Z,28.7390,-86.0060,0.0,3.0,280.0,4.0,'1111122,1111122,1111122' 
NDBC,ioos:station:wmo:42039:1,2014-08-07T07:50:00Z,28.7390,-86.0060,0.0,3.0,270.0,4.0,'1111122,1111122,1111122' 
NDBC,ioos:station:wmo:42039:1,2014-08-07T08:50:00Z,28.7390,-86.0060,0.0,3.0,300.0,4.0,'1111122,1111122,1111122' 
NDBC,ioos:station:wmo:42039:1,2014-08-07T09:50:00Z,28.7390,-86.0060,0.0,1.0,190.0,2.0,'1111122,1111122,1111122' 
NDBC,ioos:station:wmo:42039:1,2014-08-07T10:50:00Z,28.7390,-86.0060,0.0,4.0,300.0,5.0,'1111122,1111122,1111122' 
NDBC,ioos:station:wmo:42039:1,2014-08-07T11:50:00Z,28.7390,-86.0060,0.0,4.0,300.0,4.0,'1111122,1111122,1111122' 
NDBC,ioos:station:wmo:42039:1,2014-08-07T12:50:00Z,28.7390,-86.0060,0.0,3.0,290.0,4.0,'1111122,1111122,1111122' 
NDBC,ioos:station:wmo:42039:1,2014-08-07T13:50:00Z,28.7390,-86.0060,0.0,3.0,310.0,4.0,'1111122,1111122,1111122' 
NDBC,ioos:station:wmo:42039:1,2014-08-07T14:50:00Z,28.7390,-86.0060,0.0,3.0,310.0,4.0,'1111122,1111122,1111122' 
NDBC,ioos:station:wmo:42039:1,2014-08-07T15:50:00Z,28.7390,-86.0060,0.0,3.0,300.0,4.0,'1111122,1111122,1111122' 
NDBC,ioos:station:wmo:42039:1,2014-08-07T16:50:00Z,28.7390,-86.0060,0.0,3.0,300.0,3.0,'1111122,1111122,1111122' 
NDBC,ioos:station:wmo:42039:1,2014-08-07T17:50:00Z,28.7390,-86.0060,0.0,3.0,300.0,3.0,'1111122,1111122,1111122' 
NDBC,ioos:station:wmo:42039:1,2014-08-07T18:50:00Z,28.7390,-86.0060,0.0,2.0,300.0,3.0,'1111122,1111122,1111122' 
NDBC,ioos:station:wmo:42039:1,2014-08-07T19:50:00Z,28.7390,-86.0060,0.0,2.0,330.0,3.0,'1111122,1111122,1111122' 
NDBC,ioos:station:wmo:42039:1,2014-08-07T20:50:00Z,28.7390,-86.0060,0.0,4.0,290.0,5.0,'1111122,1111122,1111122' 
NDBC,ioos:station:wmo:42039:1,2014-08-07T21:50:00Z,28.7390,-86.0060,0.0,2.0,330.0,3.0,'1111122,1111122,1111122' 
NDBC,ioos:station:wmo:42039:1,2014-08-07T22:50:00Z,28.7390,-86.0060,0.0,1.0,310.0,2.0,'1111122,1111122,1111122' 
NDBC,ioos:station:wmo:42039:1,2014-08-07T23:50:00Z,28.7390,-86.0060,0.0,1.0,290.0,2.0,'1111122,1111122,1111122' 
NDBC,ioos:station:wmo:42039:1,2014-08-08T00:50:00Z,28.7390,-86.0060,0.0,2.0,220.0,3.0,'1111122,1111122,1111122' 
NDBC,ioos:station:wmo:42039:1,2014-08-08T01:50:00Z,28.7390,-86.0060,0.0,1.0,220.0,2.0,'1111122,1111122,1111122' 
NDBC,ioos:station:wmo:42039:1,2014-08-08T02:50:00Z,28.7390,-86.0060,0.0,2.0,210.0,3.0,'1111122,1111122,1111122' 
NDBC,ioos:station:wmo:42039:1,2014-08-08T03:50:00Z,28.7390,-86.0060,0.0,2.0,250.0,3.0,'1111122,1111122,1111122' 
NDBC,ioos:station:wmo:42039:1,2014-08-08T04:50:00Z,28.7390,-86.0060,0.0,2.0,290.0,3.0,'1111122,1111122,1111122' 
NDBC,ioos:station:wmo:42039:1,2014-08-08T06:50:00Z,28.7390,-86.0060,0.0,2.0,230.0,3.0,'1111122,1111122,1111122' 
NDBC,ioos:station:wmo:42039:1,2014-08-08T07:50:00Z,28.7390,-86.0060,0.0,2.0,230.0,3.0,'1111122,1111122,1111122' 
NDBC,ioos:station:wmo:42039:1,2014-08-08T08:50:00Z,28.7390,-86.0060,0.0,3.0,220.0,4.0,'1111122,1111122,1111122' 
NDBC,ioos:station:wmo:42039:1,2014-08-08T09:50:00Z,28.7390,-86.0060,0.0,2.0,230.0,3.0,'1111122,1111122,1111122' 
NDBC,ioos:station:wmo:42039:1,2014-08-08T10:50:00Z,28.7390,-86.0060,0.0,3.0,240.0,4.0,'1111122,1111122,1111122' 
NDBC,ioos:station:wmo:42039:1,2014-08-08T11:50:00Z,28.7390,-86.0060,0.0,2.0,280.0,3.0,'1111122,1111122,1111122' 
NDBC,ioos:station:wmo:42039:1,2014-08-08T12:50:00Z,28.7390,-86.0060,0.0,3.0,300.0,3.0,'1111122,1111122,1111122' 
NDBC,ioos:station:wmo:42039:1,2014-08-08T13:50:00Z,28.7390,-86.0060,0.0,2.0,290.0,3.0,'1111122,1111122,1111122' 
NDBC,ioos:station:wmo:42039:1,2014-08-08T14:50:00Z,28.7390,-86.0060,0.0,2.0,310.0,3.0,'1111122,1111122,1111122' 
NDBC,ioos:station:wmo:42039:1,2014-08-08T15:50:00Z,28.7390,-86.0060,0.0,1.0,280.0,1.0,'1111122,1111122,1111122' 
NDBC,ioos:station:wmo:42039:1,2014-08-08T16:50:00Z,28.7390,-86.0060,0.0,1.0,280.0,2.0,'1111122,1111122,1111122' 
NDBC,ioos:station:wmo:42039:1,2014-08-08T17:50:00Z,28.7390,-86.0060,0.0,1.0,240.0,3.0,'1111122,1111122,1111122' 
NDBC,ioos:station:wmo:42039:1,2014-08-08T19:50:00Z,28.7390,-86.0060,0.0,2.0,190.0,3.0,'1111122,1111122,1111122' 
NDBC,ioos:station:wmo:42039:1,2014-08-08T20:50:00Z,28.7390,-86.0060,0.0,2.0,240.0,3.0,'1111122,1111122,1111122' 
NDBC,ioos:station:wmo:42039:1,2014-08-08T21:50:00Z,28.7390,-86.0060,0.0,2.0,260.0,4.0,'1111122,1111122,1111122' 
NDBC,ioos:station:wmo:42039:1,2014-08-08T22:50:00Z,28.7390,-86.0060,0.0,3.0,250.0,4.0,'1111122,1111122,1111122' 
NDBC,ioos:station:wmo:42039:1,2014-08-08T23:50:00Z,28.7390,-86.0060,0.0,2.0,240.0,3.0,'1111122,1111122,1111122' 
NDBC,ioos:station:wmo:42039:1,2014-08-09T00:50:00Z,28.7390,-86.0060,0.0,2.0,240.0,3.0,'1111122,1111122,1111122' 
NDBC,ioos:station:wmo:42039:1,2014-08-09T01:50:00Z,28.7390,-86.0060,0.0,2.0,260.0,2.0,'1111122,1111122,1111122' 
NDBC,ioos:station:wmo:42039:1,2014-08-09T02:50:00Z,28.7390,-86.0060,0.0,1.0,240.0,2.0,'1111122,1111122,1111122' 
NDBC,ioos:station:wmo:42039:1,2014-08-09T03:50:00Z,28.7390,-86.0060,0.0,2.0,180.0,3.0,'1111122,1111122,1111122' 
NDBC,ioos:station:wmo:42039:1,2014-08-09T04:50:00Z,28.7390,-86.0060,0.0,2.0,200.0,4.0,'1111122,1111122,1111122' 
NDBC,ioos:station:wmo:42039:1,2014-08-09T05:50:00Z,28.7390,-86.0060,0.0,3.0,190.0,4.0,'1111122,1111122,1111122' 
NDBC,ioos:station:wmo:42039:1,2014-08-09T06:50:00Z,28.7390,-86.0060,0.0,4.0,210.0,5.0,'1111122,1111122,1111122' 
NDBC,ioos:station:wmo:42039:1,2014-08-09T07:50:00Z,28.7390,-86.0060,0.0,3.0,200.0,4.0,'1111122,1111122,1111122' 
NDBC,ioos:station:wmo:42039:1,2014-08-09T08:50:00Z,28.7390,-86.0060,0.0,4.0,220.0,4.0,'1111122,1111122,1111122' 
NDBC,ioos:station:wmo:42039:1,2014-08-09T09:50:00Z,28.7390,-86.0060,0.0,3.0,240.0,4.0,'1111122,1111122,1111122' 
NDBC,ioos:station:wmo:42039:1,2014-08-09T10:50:00Z,28.7390,-86.0060,0.0,3.0,270.0,4.0,'1111122,1111122,1111122' 
NDBC,ioos:station:wmo:42039:1,2014-08-09T11:50:00Z,28.7390,-86.0060,0.0,3.0,270.0,4.0,'1111122,1111122,1111122' 
NDBC,ioos:station:wmo:42039:1,2014-08-09T12:50:00Z,28.7390,-86.0060,0.0,3.0,270.0,3.0,'1111122,1111122,1111122' 
NDBC,ioos:station:wmo:42039:1,2014-08-09T13:50:00Z,28.7390,-86.0060,0.0,2.0,260.0,3.0,'1111122,1111122,1111122' 
NDBC,ioos:station:wmo:42039:1,2014-08-09T14:50:00Z,28.7390,-86.0060,0.0,1.0,230.0,2.0,'1111122,1111122,1111122' 
NDBC,ioos:station:wmo:42039:1,2014-08-09T15:50:00Z,28.7390,-86.0060,0.0,2.0,230.0,2.0,'1111122,1111122,1111122' 
NDBC,ioos:station:wmo:42039:1,2014-08-09T16:50:00Z,28.7390,-86.0060,0.0,3.0,200.0,4.0,'1111122,1111122,1111122' 
NDBC,ioos:station:wmo:42039:1,2014-08-09T18:50:00Z,28.7390,-86.0060,0.0,3.0,250.0,4.0,'1111122,1111122,1111122' 
NDBC,ioos:station:wmo:42039:1,2014-08-09T19:50:00Z,28.7390,-86.0060,0.0,3.0,230.0,4.0,'1111122,1111122,1111122' 
NDBC,ioos:station:wmo:42039:1,2014-08-09T20:50:00Z,28.7390,-86.0060,0.0,3.0,220.0,4.0,'1111122,1111122,1111122' 
NDBC,ioos:station:wmo:42039:1,2014-08-09T21:50:00Z,28.7390,-86.0060,0.0,3.0,210.0,4.0,'1111122,1111122,1111122' 
NDBC,ioos:station:wmo:42039:1,2014-08-09T22:50:00Z,28.7390,-86.0060,0.0,3.0,230.0,4.0,'1111122,1111122,1111122' 
NDBC,ioos:station:wmo:42039:1,2014-08-09T23:50:00Z,28.7390,-86.0060,0.0,3.0,240.0,4.0,'1111122,1111122,1111122' 
NDBC,ioos:station:wmo:42039:1,2014-08-10T00:50:00Z,28.7390,-86.0060,0.0,2.0,240.0,3.0,'1111122,1111122,1111122' 
NDBC,ioos:station:wmo:42039:1,2014-08-10T01:50:00Z,28.7390,-86.0060,0.0,2.0,220.0,3.0,'1111122,1111122,1111122' 
NDBC,ioos:station:wmo:42039:1,2014-08-10T02:50:00Z,28.7390,-86.0060,0.0,2.0,240.0,3.0,'1111122,1111122,1111122' 
NDBC,ioos:station:wmo:42039:1,2014-08-10T03:50:00Z,28.7390,-86.0060,0.0,2.0,270.0,3.0,'1111122,1111122,1111122' 
NDBC,ioos:station:wmo:42039:1,2014-08-10T04:50:00Z,28.7390,-86.0060,0.0,2.0,220.0,3.0,'1111122,1111122,1111122' 
NDBC,ioos:station:wmo:42039:1,2014-08-10T06:50:00Z,28.7390,-86.0060,0.0,4.0,210.0,5.0,'1111122,1111122,1111122' 
NDBC,ioos:station:wmo:42039:1,2014-08-10T07:50:00Z,28.7390,-86.0060,0.0,4.0,210.0,5.0,'1111122,1111122,1111122' 
NDBC,ioos:station:wmo:42039:1,2014-08-10T08:50:00Z,28.7390,-86.0060,0.0,4.0,190.0,5.0,'1111122,1111122,1111122' 
NDBC,ioos:station:wmo:42039:1,2014-08-10T09:50:00Z,28.7390,-86.0060,0.0,5.0,200.0,6.0,'1111122,1111122,1111122' 
NDBC,ioos:station:wmo:42039:1,2014-08-10T10:50:00Z,28.7390,-86.0060,0.0,4.0,230.0,5.0,'1111122,1111122,1111122' 
NDBC,ioos:station:wmo:42039:1,2014-08-10T11:50:00Z,28.7390,-86.0060,0.0,4.0,240.0,5.0,'1111122,1111122,1111122' 
NDBC,ioos:station:wmo:42039:1,2014-08-10T12:50:00Z,28.7390,-86.0060,0.0,4.0,240.0,5.0,'1111122,1111122,1111122' 
NDBC,ioos:station:wmo:42039:1,2014-08-10T13:50:00Z,28.7390,-86.0060,0.0,4.0,260.0,5.0,'1111122,1111122,1111122' 
NDBC,ioos:station:wmo:42039:1,2014-08-10T14:50:00Z,28.7390,-86.0060,0.0,6.0,280.0,8.0,'1111122,1111122,1111122' 
NDBC,ioos:station:wmo:42039:1,2014-08-10T16:50:00Z,28.7390,-86.0060,0.0,3.0,260.0,4.0,'1111122,1111122,1111122' 
NDBC,ioos:station:wmo:42039:1,2014-08-10T17:50:00Z,28.7390,-86.0060,0.0,3.0,250.0,4.0,'1111122,1111122,1111122' 
NDBC,ioos:station:wmo:42039:1,2014-08-10T18:50:00Z,28.7390,-86.0060,0.0,4.0,280.0,5.0,'1111122,1111122,1111122' 
NDBC,ioos:station:wmo:42039:1,2014-08-10T19:50:00Z,28.7390,-86.0060,0.0,6.0,270.0,7.0,'1111122,1111122,1111122' 